Location: Mentone
(34.5413°N, 85.5351°W)
Time: 06:14:20
(UTC-05:00)

Amateur Radio Satellites - All Passes

Search period start: 01 September 2014 05:44
Search period end: 02 September 2014 05:44
Location: Mentone, 34.5413°N, 85.5351°W

Satellite Date Start Highest point End Downlink Frequencies (MHz)
Time Altitude Azimuth
Saudisat 1A 01 Sep 06:01:39 06:03:07 11° 46° (NE) 06:04:35 436.775 MHz
KITSAT 1 01 Sep 06:08:49 06:10:00 10° 32° (NNE) 06:11:10 435.175 FM
JAS-2 01 Sep 06:25:22 06:30:36 54° 101° (E) 06:36:19 435.800 - 435.900 CW/SSB, 435.910 FM
Uosat F 01 Sep 06:42:03 06:43:05 11° 298° (WNW) 06:44:06 435.120 FM
Hamsat 01 Sep 06:46:05 06:50:25 74° 283° (WNW) 06:54:42 145.90 MHz
RS-15 01 Sep 06:56:57 07:07:48 60° 112° (ESE) 07:18:25 29.354 - 29.394 USB, Beacon 29.352 USB
STRAND 1 01 Sep 07:15:10 07:20:03 47° 260° (W) 07:24:58 ?
AO-7 01 Sep 07:30:56 07:34:34 14° 308° (NW) 07:38:12 29.400 - 29.500 MHz
Saudisat 1A 01 Sep 07:38:48 07:43:13 76° 242° (WSW) 07:47:35 436.775 MHz
KITSAT 1 01 Sep 07:59:59 08:07:42 46° 56° (NE) 08:15:22 435.175 FM
SO-67 01 Sep 08:10:32 08:13:50 42° 285° (WNW) 08:17:06 435.3500 MHz FM
JAS-2 01 Sep 08:12:08 08:15:21 16° 294° (WNW) 08:18:43 435.800 - 435.900 CW/SSB, 435.910 FM
RS-15 01 Sep 09:10:39 09:20:35 37° 313° (NW) 09:30:27 29.354 - 29.394 USB, Beacon 29.352 USB
HO-68 01 Sep 09:21:56 09:28:51 50° 101° (E) 09:35:44 435.675 MHz FM
ISS 01 Sep 09:33:39 09:36:58 83° 317° (NW) 09:40:18 145.800 FM
KITSAT 1 01 Sep 09:55:45 10:02:49 35° 253° (WSW) 10:09:52 435.175 FM
UKube-1 01 Sep 10:15:38 10:19:59 85° 284° (WNW) 10:24:19 145.840 MHz, 145.915 MHz
Oscar 11 01 Sep 10:19:59 10:24:21 69° 101° (E) 10:28:41 145.825 FM, Beacon 2401.500 USB
FUNcube-1 01 Sep 10:50:09 10:54:39 58° 100° (E) 10:59:11 145.950 - 145.970 MHz USB
PANSAT 01 Sep 10:53:31 10:56:34 22° 166° (SSE) 10:59:37 not established
HO-68 01 Sep 11:10:21 11:16:09 28° 297° (WNW) 11:21:58 435.675 MHz FM
ISS 01 Sep 11:12:53 11:14:09 12° 334° (NNW) 11:15:25 145.800 FM
RS-15 01 Sep 11:33:42 11:37:37 12° 345° (NNW) 11:41:32 29.354 - 29.394 USB, Beacon 29.352 USB
SO-50 01 Sep 12:09:11 12:13:53 51° 58° (ENE) 12:18:36 436.795 FM
MaSat-1 01 Sep 12:11:54 12:16:24 42° 107° (ESE) 12:21:13 437.345 MHz
Oscar 16 01 Sep 12:23:50 12:27:16 18° 66° (ENE) 12:30:43 437.025 USB, Beacon 2401.1428
FUNcube-1 01 Sep 12:28:46 12:30:31 12° 294° (WNW) 12:32:17 145.950 - 145.970 MHz USB
PANSAT 01 Sep 12:32:50 12:36:20 33° 179° (S) 12:39:50 not established
JAS-1B 01 Sep 12:54:14 13:02:02 29° 64° (ENE) 13:09:12 435.800 - 435.900 CW/SSB
AO-27 01 Sep 12:55:07 12:58:03 15° 64° (ENE) 13:00:58 436.795 MHz FM
Oscar 19 01 Sep 13:25:48 13:30:56 74° 75° (ENE) 13:36:07 437.125 CW, 437.150 USB
Oscar 10/S400 01 Sep 13:30:28 13:46:51 15° 158° (SSE) 13:57:30 145.825 - 145.975 CW/USB, Beacon 145.810 USB
Gurwin Techsat 1B 01 Sep 13:33:07 13:36:13 16° 65° (ENE) 13:39:19 435.225 FM
AO-Echo 01 Sep 13:39:19 13:44:07 45° 73° (ENE) 13:48:47 ?
MaSat-1 01 Sep 13:49:51 13:53:36 21° 304° (WNW) 13:57:30 437.345 MHz
SO-50 01 Sep 13:51:13 13:54:01 16° 252° (WSW) 13:56:50 436.795 FM
RS-15 01 Sep 13:51:14 13:57:11 15° 25° (NNE) 14:03:11 29.354 - 29.394 USB, Beacon 29.352 USB
UOSAT-12 01 Sep 13:59:03 14:03:40 51° 58° (ENE) 14:08:10 437.025 FM, 437.400 FM
Oscar 16 01 Sep 14:01:17 14:06:13 46° 260° (W) 14:11:12 437.025 USB, Beacon 2401.1428
ITAMSAT 1 01 Sep 14:02:19 14:07:28 72° 75° (ENE) 14:12:37 435.822 SSB
Uribyol 2 01 Sep 14:11:48 14:16:57 86° 257° (WSW) 14:22:08 436.500 FM
PANSAT 01 Sep 14:12:55 14:16:08 25° 192° (SSW) 14:19:21 not established
TMSAT-1 01 Sep 14:21:34 14:26:16 34° 70° (ENE) 14:30:59 436.925 FM
AO-27 01 Sep 14:31:58 14:37:02 56° 259° (W) 14:42:08 436.795 MHz FM
AO-7 01 Sep 14:39:58 14:45:58 23° 58° (ENE) 14:51:57 29.400 - 29.500 MHz
JAS-1B 01 Sep 14:42:07 14:51:55 67° 258° (WSW) 15:00:51 435.800 - 435.900 CW/SSB
PCSat 01 Sep 15:05:27 15:08:37 16° 104° (ESE) 15:11:48 145.825 MHz
Oscar 19 01 Sep 15:10:17 15:10:44 10° 269° (W) 15:11:12 437.125 CW, 437.150 USB
Gurwin Techsat 1B 01 Sep 15:10:28 15:15:40 57° 259° (W) 15:20:53 435.225 FM
AO-Echo 01 Sep 15:19:54 15:23:01 16° 266° (W) 15:26:06 ?
UOSAT-12 01 Sep 15:40:48 15:43:19 15° 252° (WSW) 15:45:49 437.025 FM, 437.400 FM
ITAMSAT 1 01 Sep 15:46:26 15:47:23 11° 269° (W) 15:48:21 435.822 SSB
PANSAT 01 Sep 15:55:01 15:55:44 10° 203° (SSW) 15:56:28 not established
TMSAT-1 01 Sep 16:01:54 16:06:10 25° 264° (W) 16:10:27 436.925 FM
RS-15 01 Sep 16:02:19 16:13:04 51° 53° (NE) 16:24:11 29.354 - 29.394 USB, Beacon 29.352 USB
OPAL 01 Sep 16:05:13 16:07:59 14° 95° (E) 16:10:44 ?
ISS 01 Sep 16:05:39 16:08:26 24° 34° (NE) 16:11:12 145.800 FM
Uosat F 01 Sep 16:09:41 16:14:40 73° 75° (ENE) 16:19:40 435.120 FM
Sapphire 01 Sep 16:16:50 16:22:11 73° 114° (ESE) 16:27:36 437.095 MHz 1200 baud AX-25 AFSK
AO-7 01 Sep 16:29:35 16:37:54 74° 254° (WSW) 16:46:15 29.400 - 29.500 MHz
JAS-2 01 Sep 16:36:45 16:40:03 15° 66° (ENE) 16:43:11 435.800 - 435.900 CW/SSB, 435.910 FM
JAS-1B 01 Sep 16:40:53 16:43:17 11° 272° (W) 16:45:39 435.800 - 435.900 CW/SSB
PCSat 01 Sep 16:46:12 16:51:29 56° 299° (WNW) 16:56:50 145.825 MHz
Hamsat 01 Sep 17:35:42 17:39:50 48° 74° (ENE) 17:44:02 145.90 MHz
OPAL 01 Sep 17:42:02 17:47:09 57° 289° (WNW) 17:52:13 ?
ISS 01 Sep 17:42:14 17:45:09 28° 229° (SW) 17:48:03 145.800 FM
Sapphire 01 Sep 18:03:09 18:06:10 15° 311° (NW) 18:09:13 437.095 MHz 1200 baud AX-25 AFSK
RS-15 01 Sep 18:14:59 18:25:09 43° 252° (WSW) 18:35:46 29.354 - 29.394 USB, Beacon 29.352 USB
JAS-2 01 Sep 18:18:31 18:24:44 64° 258° (WSW) 18:30:18 435.800 - 435.900 CW/SSB, 435.910 FM
AO-7 01 Sep 18:30:24 18:31:46 10° 270° (W) 18:33:08 29.400 - 29.500 MHz
SO-67 01 Sep 18:40:08 18:43:12 30° 74° (ENE) 18:46:18 435.3500 MHz FM
Hamsat 01 Sep 19:14:34 19:16:02 12° 268° (W) 19:17:31 145.90 MHz
STRAND 1 01 Sep 19:29:04 19:34:11 79° 103° (ESE) 19:39:17 ?
HO-68 01 Sep 19:47:42 19:53:23 27° 63° (ENE) 19:59:05 435.675 MHz FM
SO-67 01 Sep 20:15:20 20:16:19 11° 267° (W) 20:17:18 435.3500 MHz FM
UKube-1 01 Sep 21:07:36 21:11:48 52° 74° (ENE) 21:16:01 145.840 MHz, 145.915 MHz
STRAND 1 01 Sep 21:11:32 21:12:39 11° 298° (WNW) 21:13:47 ?
Oscar 11 01 Sep 21:11:44 21:15:38 34° 72° (ENE) 21:19:34 145.825 FM, Beacon 2401.500 USB
HO-68 01 Sep 21:33:45 21:40:39 52° 259° (WSW) 21:47:36 435.675 MHz FM
Saudisat 1A 01 Sep 21:41:44 21:46:05 66° 117° (ESE) 21:50:28 436.775 MHz
FUNcube-1 01 Sep 21:43:48 21:47:22 28° 71° (ENE) 21:51:00 145.950 - 145.970 MHz USB
MaSat-1 01 Sep 22:09:59 22:14:08 40° 61° (ENE) 22:17:42 437.345 MHz
KITSAT 1 01 Sep 22:23:56 22:31:40 51° 110° (ESE) 22:39:24 435.175 FM
UKube-1 01 Sep 22:47:09 22:48:15 11° 267° (W) 22:49:22 145.840 MHz, 145.915 MHz
Oscar 11 01 Sep 22:49:05 22:51:53 17° 266° (W) 22:54:42 145.825 FM, Beacon 2401.500 USB
FUNcube-1 01 Sep 23:20:48 23:23:45 19° 266° (W) 23:26:46 145.950 - 145.970 MHz USB
Saudisat 1A 01 Sep 23:24:05 23:26:05 13° 313° (NW) 23:28:06 436.775 MHz
MaSat-1 01 Sep 23:48:50 23:50:28 12° 262° (W) 23:52:01 437.345 MHz
KITSAT 1 02 Sep 00:20:07 00:27:15 34° 308° (NW) 00:34:26 435.175 FM
Sapphire 02 Sep 01:08:49 01:13:28 28° 56° (NE) 01:18:06 437.095 MHz 1200 baud AX-25 AFSK
PCSat 02 Sep 01:37:36 01:42:55 54° 61° (ENE) 01:48:12 145.825 MHz
Oscar 19 02 Sep 01:41:22 01:46:06 35° 98° (E) 01:50:47 437.125 CW, 437.150 USB
AO-Echo 02 Sep 01:51:01 01:54:13 18° 95° (E) 01:57:25 ?
Oscar 16 02 Sep 02:16:19 02:21:32 84° 103° (ESE) 02:26:43 437.025 USB, Beacon 2401.1428
ITAMSAT 1 02 Sep 02:19:08 02:23:49 34° 98° (E) 02:28:30 435.822 SSB
SO-50 02 Sep 02:21:11 02:25:14 36° 113° (ESE) 02:29:23 436.795 FM
Uribyol 2 02 Sep 02:28:15 02:33:14 45° 100° (E) 02:38:12 436.500 FM
JAS-1B 02 Sep 02:34:27 02:40:28 43° 98° (E) 02:45:53 435.800 - 435.900 CW/SSB
TMSAT-1 02 Sep 02:41:46 02:45:17 18° 94° (E) 02:48:46 436.925 FM
AO-27 02 Sep 02:48:27 02:53:39 71° 102° (ESE) 02:58:49 436.795 MHz FM
Sapphire 02 Sep 02:52:01 02:56:52 34° 251° (WSW) 03:01:42 437.095 MHz 1200 baud AX-25 AFSK
OPAL 02 Sep 03:16:39 03:20:03 18° 63° (ENE) 03:23:29 ?
Oscar 19 02 Sep 03:21:07 03:25:12 24° 292° (WNW) 03:29:16 437.125 CW, 437.150 USB
PCSat 02 Sep 03:22:30 03:25:49 17° 256° (WSW) 03:29:07 145.825 MHz
AO-Echo 02 Sep 03:28:46 03:33:04 37° 288° (WNW) 03:37:24 ?
Gurwin Techsat 1B 02 Sep 03:30:10 03:35:30 79° 103° (ESE) 03:40:48 435.225 FM
ITAMSAT 1 02 Sep 03:58:59 04:03:06 24° 292° (WNW) 04:07:13 435.822 SSB
Oscar 16 02 Sep 03:59:25 04:00:07 10° 298° (WNW) 04:00:49 437.025 USB, Beacon 2401.1428
SO-50 02 Sep 04:02:29 04:05:53 21° 309° (NW) 04:09:21 436.795 FM
UOSAT-12 02 Sep 04:07:05 04:11:13 34° 113° (ESE) 04:15:25 437.025 FM, 437.400 FM
Uribyol 2 02 Sep 04:08:47 04:12:19 19° 294° (WNW) 04:15:52 436.500 FM
TMSAT-1 02 Sep 04:20:19 04:25:23 47° 288° (WNW) 04:30:25 436.925 FM
Uosat F 02 Sep 04:21:26 04:25:47 29° 97° (E) 04:30:07 435.120 FM
JAS-1B 02 Sep 04:25:54 04:30:42 23° 298° (WNW) 04:35:06 435.800 - 435.900 CW/SSB
AO-27 02 Sep 04:30:26 04:32:30 12° 297° (WNW) 04:34:34 436.795 MHz FM
AO-7 02 Sep 04:35:22 04:43:18 48° 102° (ESE) 04:51:11 29.400 - 29.500 MHz
OPAL 02 Sep 04:53:41 04:58:31 46° 258° (WSW) 05:03:27 ?
Gurwin Techsat 1B 02 Sep 05:13:06 05:14:44 11° 298° (WNW) 05:16:22 435.225 FM
Hamsat 02 Sep 05:27:21 05:28:46 11° 92° (E) 05:30:11 145.90 MHz
JAS-2 02 Sep 05:32:00 05:35:24 17° 95° (E) 05:38:57 435.800 - 435.900 CW/SSB, 435.910 FM
